Terminal Aerodrome Forecast
Issued by NWS

Home | Current Version | Previous Version | Text Only | Print | Product List | Glossary On
Versions: 1 2 3 4 5 6 7 8 9 10 11 12
000
FTUS44 KSJT 231120
TAFBBD
TAF
KBBD 231120Z 2312/2412 24003KT P6SM FEW250
     FM231700 23006KT P6SM FEW250
     FM232300 VRB03KT P6SM FEW250
      AMD NOT SKED=

USA.gov is the U.S. government's official web portal to all federal, state and local government web resources and services.